User: anonymous   Login
Location: Unspecified
(0.0000°N, 0.0000°E)
Time: 01:28:51
(UTC+01:00)
Language:

Cosmos 1980 Rocket - Orbit

View from above orbital plane
View from above orbital plane
View from above satellite
View from above satellite

Ground track
Ground track

The orbit data is extracted from the following two-line orbital elements,

1 19650U 88102B   15030.60649281  .00000275  00000-0  16463-3 0  4885
2 19650 070.9999 041.3959 0012317 058.8466 080.5349 14.15696154353066
Epoch (UTC): 30 January 2015 14:33:20
Eccentricity: 0.0012317
inclination: 70.9999°
perigee height: 831 km
apogee height: 849 km
right ascension of ascending node: 41.3959°
argument of perigee: 58.8466°
revolutions per day: 14.15696154
mean anomaly at epoch: 80.5349°
orbit number at epoch: 35306

The dashed part of the orbit path shows where the satellite is in the earth's shadow,  

DLR